Wind_Speed
12 12 12 12 12 12 12 13 13 13 14 14 15 15 16 16 16 17 17 17 17 18 18 18 18 18 19 19 19 19 20 20 20 20 21 21 21 21 21 22 22 22 23
13 13 13 13 13 14 14 14 14 15 15 15 15 16 16 17 17 18 18 18 18 19 19 19 19 20 20 20 20 20 21 21 21 21 22 22 22 23 23 23 23 23 23
13 13 13 14 14 14 14 14 15 15 15 15 16 16 17 17 17 17 18 18 19 19 19 19 20 20 20 20 21 21 21 21 22 22 22 23 23 23 23 24 24 24 24
13 13 13 13 13 14 14 14 15 15 15 16 16 17 17 17 18 18 18 18 18 19 19 19 19 19 20 20 20 21 21 22 22 22 23 23 23 23 24 24 24 24 24
13 13 13 13 13 14 14 15 15 15 16 16 17 17 17 17 18 18 18 18 18 18 19 19 19 20 20 20 21 21 21 22 22 23 23 23 23 23 24 24 24 25 25
13 13 13 13 14 14 14 15 15 15 16 16 17 17 17 17 17 18 18 18 19 19 19 20 20 21 21 21 22 22 22 22 23 23 23 24 24 24 24 24 25 25 25
12 12 12 13 13 14 14 15 15 15 16 16 17 17 17 18 18 18 19 19 20 20 20 21 21 22 22 22 22 23 23 24 24 24 24 24 25 25 25 25 26 26 26
11 12 12 13 14 14 14 15 15 15 16 17 17 18 18 19 19 20 20 21 21 21 22 22 22 22 23 23 24 24 25 25 26 26 26 26 27 27 27 27 28 28 28
12 13 13 14 14 15 15 15 16 17 17 18 18 19 20 20 21 22 22 22 22 23 23 23 23 24 24 24 25 26 26 27 27 28 28 28 29 29 29 29 29 30 30
13 14 14 15 15 16 16 17 18 18 19 19 20 20 21 21 22 22 22 22 22 23 23 23 24 24 25 25 26 26 27 28 29 29 30 30 30 31 31 31 31 32 32
14 15 15 16 16 17 18 18 19 20 20 21 21 21 22 22 22 22 23 23 23 23 24 24 24 25 25 26 27 27 28 28 29 30 30 31 31 32 32 33 33 34 34
16 16 17 17 18 19 19 20 21 21 21 22 22 23 23 23 23 23 23 23 24 24 24 24 25 25 26 27 27 28 29 29 30 30 31 31 32 32 33 34 34 35 35
17 18 18 19 20 20 21 22 22 22 23 23 24 24 24 24 24 24 24 24 24 24 25 25 25 26 27 28 29 29 30 31 31 31 32 32 33 33 34 35 35 36 36
19 20 20 21 21 22 23 23 23 24 24 25 25 25 25 25 25 25 25 25 25 25 25 26 27 27 28 29 30 31 31 32 32 32 33 33 34 35 35 36 36 37 37
21 22 22 22 23 24 24 25 25 25 26 26 26 26 26 26 25 25 25 26 26 26 27 27 28 29 30 31 31 32 32 33 33 33 34 34 35 35 36 37 37 37 38
23 23 24 24 24 25 25 26 27 27 27 27 27 27 27 27 26 26 26 27 27 27 28 29 30 31 31 32 32 33 33 33 33 34 34 35 35 36 36 37 37 38 39
25 25 25 25 26 26 27 28 28 28 28 29 28 28 28 28 27 28 28 28 28 29 30 30 31 32 32 33 33 33 33 34 34 35 35 36 36 36 37 37 38 39 40
27 27 27 27 27 28 29 29 30 30 29 29 29 29 29 29 29 29 29 29 30 31 31 32 32 33 33 34 34 34 35 35 36 37 37 38 38 38 38 39 39 40 40
29 29 29 29 29 30 30 31 31 31 30 30 30 30 30 30 30 30 30 31 31 32 33 33 33 34 34 35 36 36 36 37 38 38 39 39 39 40 40 40 41 41 42
31 31 31 31 31 31 31 32 32 32 32 31 31 31 31 31 31 31 32 32 33 33 34 34 35 35 35 36 37 37 38 38 39 40 40 40 41 42 42 42 43 43 44
33 33 33 33 33 32 32 32 32 32 32 32 32 32 32 32 32 32 32 33 33 34 35 35 36 36 36 37 37 38 39 40 40 41 42 42 43 43 44 44 45 45 46
35 34 34 34 34 33 33 33 33 33 32 32 32 32 32 33 33 33 33 34 34 35 36 37 37 37 38 38 39 39 40 41 42 42 43 44 45 45 46 46 47 48 48
36 35 35 35 34 34 34 34 34 33 33 33 33 33 33 33 34 34 35 35 36 37 37 38 38 39 39 40 40 41 41 41 42 43 44 45 46 47 48 48 49 50 50
37 36 36 35 34 34 34 34 34 34 34 34 34 34 34 34 35 35 36 36 37 38 39 39 40 40 41 41 42 42 43 43 43 42 44 46 47 48 49 50 51 52 52
37 36 35 35 35 34 34 34 34 34 34 34 34 34 35 35 35 36 36 37 38 39 40 40 41 41 42 43 43 43 44 44 45 44 44 45 46 48 49 51 52 53 54
36 35 35 34 34 34 34 34 34 34 35 35 35 36 36 36 36 37 38 38 39 40 40 41 41 42 43 44 44 45 45 46 46 46 46 46 46 47 49 50 52 54 55
Wind_Direction
238 240 242 246 250 253 257 259 262 266 269 271 273 274 276 277 278 280 282 283 283 284 284 285 285 285 285 285 286 286 286 286 286 286 285 284 284 282 281 279 276 274 272
243 245 249 252 255 259 262 264 266 269 272 273 275 276 278 279 280 281 282 283 284 285 286 287 287 287 287 287 287 286 287 287 287 286 286 285 284 284 283 281 280 278 275
245 248 251 253 257 261 265 268 269 271 273 275 277 279 281 282 283 284 285 286 286 287 287 287 288 288 289 289 289 289 288 288 288 288 287 286 285 284 283 282 281 279 277
245 249 252 255 258 262 267 270 272 274 276 278 280 282 283 284 285 286 287 287 288 288 288 288 289 289 290 291 291 291 291 291 290 289 288 288 287 286 285 283 282 280 279
245 249 253 255 259 264 268 271 274 277 278 280 282 284 285 285 286 286 287 288 289 289 290 290 291 291 291 291 292 291 292 291 291 290 289 288 287 286 286 284 283 282 281
244 248 252 256 260 265 269 272 275 278 280 281 283 284 285 285 286 286 286 287 288 288 289 290 290 290 290 290 289 289 289 289 290 289 289 288 287 286 285 284 283 282 281
245 249 253 257 261 265 269 273 276 278 280 282 284 284 285 285 286 287 287 287 287 287 288 288 289 289 289 288 288 287 287 287 287 287 286 286 285 285 284 283 282 281 280
249 253 256 260 264 268 271 273 276 278 281 283 284 285 285 285 286 286 286 286 286 286 287 287 287 287 287 287 287 286 286 286 285 284 284 283 283 282 282 281 281 280 279
255 259 261 263 266 269 272 274 276 278 280 283 284 285 285 285 286 286 285 285 285 285 286 286 287 287 287 287 286 286 286 285 285 284 283 282 282 281 280 280 280 279 278
259 262 264 266 268 270 272 275 277 279 281 283 285 285 285 285 285 285 285 285 285 285 286 287 287 287 287 287 287 287 287 286 285 284 283 282 281 280 280 279 279 278 277
263 265 268 269 271 272 274 276 277 279 281 282 284 285 285 285 286 286 285 285 285 285 286 287 288 288 288 288 288 287 287 286 285 285 284 283 282 281 280 279 279 277 276
265 268 270 272 274 275 276 277 278 279 280 281 283 284 284 285 286 286 286 285 285 285 286 287 288 288 289 289 289 288 288 287 286 285 284 283 283 282 281 280 279 278 277
267 269 271 273 274 275 277 278 279 280 281 282 283 283 283 284 285 285 285 285 286 286 287 288 289 289 290 290 290 289 289 288 287 286 285 284 283 282 281 280 279 278 277
268 270 271 273 275 275 276 278 279 280 281 282 283 283 283 283 284 284 284 285 286 287 288 289 290 290 291 291 290 290 289 288 287 286 285 284 283 282 281 279 278 277 277
269 271 272 274 275 276 277 278 279 279 281 281 281 281 282 282 283 283 284 285 286 287 288 289 290 291 292 291 291 290 289 288 287 286 285 284 283 282 281 280 279 278 277
269 272 273 274 276 277 278 279 279 279 280 280 280 281 281 281 282 283 284 285 286 287 289 290 291 292 292 292 291 290 289 288 288 287 286 285 284 283 282 280 280 279 278
270 272 274 275 276 277 278 279 279 279 279 278 279 279 280 281 282 283 284 285 286 288 289 291 292 292 292 292 292 291 291 290 289 289 288 286 285 283 282 281 280 280 279
270 272 273 274 276 277 277 278 278 278 278 277 277 278 279 280 282 283 284 286 287 289 291 292 292 293 293 293 292 291 291 291 290 290 289 287 286 284 283 282 281 280 280
269 271 273 274 276 277 277 277 277 277 277 276 276 277 278 280 282 283 284 286 288 290 291 292 293 294 294 294 293 292 292 292 292 291 289 288 287 286 285 284 283 282 281
268 271 273 274 276 277 277 277 276 275 274 274 275 276 278 280 282 283 285 287 289 290 291 293 294 294 294 294 294 294 294 294 294 292 291 290 289 287 286 285 284 283 282
268 270 271 273 274 276 276 276 275 274 274 274 275 276 278 280 282 283 285 287 289 290 292 293 294 294 294 294 294 295 295 295 294 293 292 291 290 289 287 286 285 284 283
267 268 270 271 273 274 274 274 274 274 274 274 275 276 278 280 281 283 286 287 289 291 292 293 294 295 295 295 294 295 295 295 295 294 293 292 291 290 289 288 286 286 285
266 267 268 270 271 272 273 273 274 273 273 274 274 275 278 279 281 283 286 287 289 290 292 294 295 295 295 295 295 295 294 294 294 293 293 292 292 291 290 289 288 287 286
264 265 267 268 269 270 271 272 272 272 273 274 275 277 279 280 282 284 286 288 289 291 292 293 294 295 295 295 295 295 295 294 293 292 292 292 292 291 290 289 289 288 287
263 264 265 266 268 269 270 270 271 272 273 275 276 277 279 281 282 284 286 289 291 292 293 294 294 295 295 295 295 295 295 295 294 293 292 291 291 291 290 290 289 288 288
262 262 264 265 266 267 268 269 271 272 274 275 276 278 279 281 282 285 287 289 291 292 294 294 295 295 296 296 296 296 296 295 295 294 293 292 292 291 290 290 289 289 288
Height
5886 5886 5886 5887 5887 5887 5887 5887 5887 5887 5887 5887 5886 5886 5886 5885 5885 5884 5883 5883 5882 5881 5880 5879 5878 5878 5877 5876 5875 5875 5874 5873 5872 5871 5870 5870 5869 5868 5868 5867 5866 5866 5865
5884 5884 5885 5885 5885 5885 5886 5885 5885 5885 5885 5884 5884 5884 5884 5883 5882 5882 5881 5880 5879 5879 5878 5877 5876 5875 5874 5873 5872 5872 5871 5870 5869 5868 5867 5866 5865 5865 5864 5863 5863 5862 5862
5882 5882 5883 5883 5883 5883 5884 5883 5883 5883 5883 5882 5882 5882 5881 5881 5880 5879 5878 5878 5877 5876 5875 5874 5873 5872 5871 5870 5869 5868 5867 5866 5866 5865 5864 5863 5862 5861 5860 5860 5859 5859 5858
5879 5880 5880 5881 5881 5881 5881 5881 5881 5881 5880 5880 5880 5879 5879 5878 5877 5876 5876 5875 5874 5873 5872 5871 5870 5869 5868 5867 5866 5865 5864 5863 5862 5861 5860 5859 5858 5857 5857 5856 5855 5855 5854
5878 5878 5878 5879 5879 5879 5879 5879 5879 5878 5878 5878 5877 5877 5876 5875 5875 5874 5873 5872 5871 5870 5869 5868 5867 5866 5865 5864 5862 5861 5860 5859 5858 5857 5856 5855 5854 5853 5853 5852 5851 5850 5850
5875 5876 5876 5877 5877 5877 5877 5877 5876 5876 5875 5875 5875 5874 5873 5872 5872 5871 5870 5869 5868 5867 5866 5865 5863 5862 5861 5860 5859 5858 5857 5855 5854 5853 5852 5851 5850 5849 5848 5847 5847 5846 5845
5873 5874 5874 5874 5875 5875 5874 5874 5874 5873 5873 5872 5872 5871 5870 5869 5868 5867 5867 5866 5865 5863 5862 5861 5860 5858 5857 5856 5855 5854 5852 5851 5850 5849 5848 5846 5845 5844 5844 5843 5842 5841 5840
5871 5872 5872 5872 5872 5872 5872 5871 5871 5871 5870 5870 5869 5868 5867 5866 5865 5864 5863 5862 5861 5860 5858 5857 5856 5854 5853 5852 5850 5849 5848 5847 5845 5844 5843 5842 5841 5840 5839 5838 5837 5836 5835
5869 5869 5869 5869 5869 5869 5869 5869 5868 5868 5867 5866 5866 5865 5864 5863 5862 5860 5859 5858 5857 5855 5854 5853 5851 5850 5849 5847 5846 5844 5843 5842 5840 5839 5837 5836 5835 5834 5833 5832 5831 5830 5829
5867 5867 5867 5867 5866 5866 5866 5865 5865 5864 5864 5863 5862 5861 5860 5859 5858 5856 5855 5854 5852 5851 5850 5848 5847 5845 5844 5842 5841 5839 5838 5836 5835 5833 5832 5830 5829 5828 5827 5826 5825 5824 5823
5864 5864 5864 5863 5863 5863 5862 5862 5861 5860 5860 5859 5858 5857 5856 5855 5853 5852 5851 5849 5848 5847 5845 5844 5842 5841 5839 5837 5836 5834 5832 5830 5829 5827 5826 5824 5823 5822 5820 5819 5818 5817 5816
5861 5861 5860 5860 5859 5859 5858 5858 5857 5856 5856 5855 5854 5853 5851 5850 5849 5847 5846 5845 5843 5842 5840 5839 5837 5835 5834 5832 5830 5828 5826 5824 5822 5821 5819 5818 5816 5815 5814 5812 5811 5810 5809
5857 5857 5856 5856 5855 5855 5854 5853 5853 5852 5851 5850 5849 5848 5847 5845 5844 5843 5841 5840 5838 5837 5835 5834 5832 5830 5828 5826 5824 5822 5820 5818 5816 5814 5813 5811 5810 5808 5806 5805 5803 5802 5801
5853 5853 5852 5852 5851 5851 5850 5849 5848 5847 5846 5845 5844 5843 5842 5841 5839 5838 5836 5835 5833 5832 5830 5828 5826 5824 5822 5820 5818 5816 5813 5811 5809 5807 5806 5804 5802 5800 5799 5797 5795 5794 5793
5848 5848 5848 5847 5847 5846 5845 5844 5843 5842 5841 5840 5839 5838 5837 5835 5834 5833 5831 5830 5828 5826 5824 5822 5820 5818 5816 5814 5811 5809 5807 5804 5802 5800 5798 5797 5795 5793 5791 5789 5787 5786 5784
5843 5843 5842 5842 5841 5841 5840 5839 5838 5837 5836 5835 5834 5833 5831 5830 5829 5827 5826 5824 5822 5820 5818 5816 5814 5812 5809 5807 5804 5802 5799 5797 5795 5793 5791 5789 5787 5785 5783 5781 5779 5777 5776
5837 5837 5837 5836 5836 5835 5834 5833 5832 5831 5830 5829 5828 5827 5825 5824 5823 5821 5820 5818 5816 5814 5812 5810 5807 5805 5802 5800 5797 5794 5792 5790 5787 5785 5783 5781 5779 5777 5774 5772 5770 5769 5767
5831 5831 5831 5830 5829 5829 5828 5827 5826 5825 5824 5823 5822 5821 5819 5818 5817 5815 5813 5812 5810 5807 5805 5803 5800 5798 5795 5792 5789 5787 5784 5782 5779 5777 5774 5772 5770 5768 5766 5764 5762 5760 5758
5825 5825 5824 5824 5823 5822 5821 5820 5819 5818 5817 5816 5815 5814 5813 5812 5810 5808 5807 5805 5803 5800 5798 5796 5793 5790 5788 5785 5782 5779 5776 5773 5771 5768 5765 5763 5760 5758 5756 5754 5752 5750 5748
5818 5818 5817 5817 5816 5815 5814 5813 5812 5811 5810 5810 5809 5808 5806 5805 5803 5802 5800 5798 5796 5793 5791 5788 5786 5783 5780 5777 5774 5771 5768 5765 5762 5759 5756 5753 5751 5748 5746 5744 5742 5740 5737
5810 5810 5810 5809 5808 5808 5807 5806 5805 5804 5804 5803 5802 5801 5799 5798 5796 5795 5793 5791 5789 5786 5784 5781 5778 5775 5772 5769 5766 5763 5759 5756 5753 5749 5746 5743 5741 5738 5736 5733 5731 5728 5726
5802 5802 5801 5801 5801 5800 5800 5799 5798 5797 5797 5796 5795 5793 5792 5791 5789 5787 5786 5784 5781 5779 5776 5773 5770 5767 5764 5761 5758 5754 5751 5748 5744 5740 5736 5733 5730 5727 5725 5722 5719 5717 5714
5794 5794 5793 5793 5792 5792 5791 5791 5790 5790 5789 5788 5787 5786 5785 5783 5782 5780 5778 5776 5773 5771 5768 5765 5762 5759 5756 5752 5749 5746 5742 5739 5736 5732 5727 5723 5719 5716 5713 5710 5707 5705 5702
5785 5785 5785 5785 5784 5784 5783 5783 5782 5782 5781 5780 5779 5778 5777 5775 5774 5772 5770 5767 5765 5762 5760 5757 5753 5750 5747 5744 5740 5736 5733 5729 5726 5723 5719 5714 5709 5705 5702 5698 5695 5692 5689
5776 5776 5776 5776 5776 5776 5775 5775 5774 5774 5773 5773 5771 5770 5769 5767 5765 5764 5761 5759 5757 5754 5751 5748 5744 5741 5737 5734 5730 5727 5723 5719 5715 5713 5710 5705 5700 5695 5691 5686 5682 5679 5676
5767 5767 5767 5767 5767 5767 5767 5766 5766 5766 5765 5764 5763 5762 5761 5759 5757 5755 5753 5750 5748 5745 5741 5738 5735 5731 5728 5724 5720 5716 5712 5709 5705 5701 5698 5694 5690 5685 5680 5675 5670 5666 5663